AirNav   Air Wisconsin pilot careers
 
 932 users online  

73TA Reynolds Ranch Airport
Bayview, Texas, USA

GOING TO BAYVIEW?


FAA INFORMATION EFFECTIVE 06 DECEMBER 2018

Location

FAA Identifier: 73TA
Lat/Long: 26-09-30.3300N / 097-23-19.2800W
26-09.505500N / 097-23.321333W
26.1584250 / -97.3886889
(estimated)
Elevation: 24 ft. / 7 m (estimated)
From city: 2 miles NNE of BAYVIEW, TX
Time zone: UTC -6 (UTC -5 during Daylight Saving Time)
Zip code: 78566

Airport Operations

Airport use: Private use. Permission required prior to landing
Activation date: 01/2017
Control tower: no
ARTCC: HOUSTON CENTER
FSS: SAN ANGELO FLIGHT SERVICE STATION
Attendance: 
Segmented circle: no

Airport Communications

WX ASOS at PIL (2.4 nm E): 118.525 (956-233-5740)
WX ASOS at HRL (15 nm W): PHONE 956-428-7297
WX ASOS at BRO (15 nm S): 128.55 (956-546-4540)

Nearby radio navigation aids

VOR radial/distance  VOR name  Freq  Var
BROr348/14.1BROWNSVILLE VORTAC116.3009E
HRLr102/14.8HARLINGEN VOR/DME109.2005E
MAMr010/24.4MATAMOROS VOR/DME114.3007E

 
NDB name  Hdg/Dist  Freq  Var  ID
DEPOO029/12.339303EBR -... .-.

Airport Services

Runway Information

Runway 2/20

Dimensions: 2000 x 50 ft. / 610 x 15 m
Surface: turf
RUNWAY 2  RUNWAY 20
Latitude: 26-09.352167N26-09.658667N
Longitude: 097-23.389000W097-23.253500W
Elevation: 23.0 ft.24.0 ft.
Traffic pattern: leftleft
Runway heading: 022 true202 true

Airport Ownership and Management from official FAA records

Ownership: Privately-owned
Owner: STEPHEN REYNOLDS
27677 LOOP ROAD
BAYVIEW, TX 78566
Phone 956-330-3082
ECHOHOTEL@AOL.COM
Manager: STEPHEN REYNOLDS
27677 LOOP ROAD
BAYVIEW, TX 78566
Phone 956-330-3082

Airport Operational Statistics

Aircraft based on the field: 1
Single engine airplanes: 1
    

Instrument Procedures

There are no published instrument procedures at 73TA.

Some nearby airports with instrument procedures:

KPIL - Port Isabel-Cameron County Airport (2 nm E)
KHRL - Valley International Airport (15 nm W)
KBRO - Brownsville/South Padre Island International Airport (15 nm S)
KTXW - Mid Valley Airport (32 nm W)
KEBG - South Texas International Airport at Edinburg (43 nm NW)
 
Loc | Ops | Rwys | IFR | FBO | Links
Com | Nav | Svcs | Stats | Notes


 
Aerial photo
No photo
 
Airport distance calculator
Flying to Reynolds Ranch Airport? Find the distance to fly.

From to 73TA

Sunrise and sunset
Times for 16-Dec-2018
 Local
(UTC-6)
 Zulu
(UTC)
Morning civil twilight06:4612:46
Sunrise07:1113:11
Sunset17:3923:39
Evening civil twilight18:0500:05

Current date and time
Zulu (UTC)  16-Dec-2018 14:45:33
Local (UTC-6)  16-Dec-2018 08:45:33
 
METAR
KPIL 
3nm E 
161353Z AUTO 28006KT 8SM CLR 07/M01 A3029 RMK AO2 SLP257 T00721006 $
KHRL 
15nm W 
161352Z 00000KT 10SM CLR 03/M02 A3029 RMK AO2 SLP258 T00331017 $
KBRO 
16nm S 
161353Z 30003KT 10SM CLR 06/01 A3030 RMK AO2 SLP260 T00610006
TAF
KHRL 
15nm W 
161130Z 1612/1712 27003KT P6SM FEW250 FM161500 31007KT P6SM FEW250 FM162000 07007KT P6SM FEW250 FM170200 VRB01KT P6SM FEW020
KBRO 
16nm S 
161130Z 1612/1712 27003KT P6SM FEW250 FM161500 32007KT P6SM FEW250 FM162000 06007KT P6SM FEW250 FM170200 VRB01KT P6SM FEW020
NOTAMs
Click for the latest NOTAMs
NOTAMs are issued by the DoD/FAA and will open in a separate window not controlled by AirNav.

 

 
 

Would you like to see your business listed on this page?

 If your business provides an interesting product or service to pilots, flight crews, aircraft, or users of the Reynolds Ranch Airport, you should consider listing it here.  To start the listing process, click on the button below
 
Add a business
 

Other Pages about Reynolds Ranch Airport

Update a link
 
Copyright © AirNav, LLC. All rights reserved. Privacy Policy  Contact